Dover AFB, DE

8:43 PM EST on February 20, 2018 (GMT -0500)
Dover Air Force Base

Weather History for KDOV - May, 2013

Change the Weather History Date:

Tuesday, May 7, 2013

  Actual Average Record
Temperature  
Mean Temperature 59 °F -  
Max Temperature 65 °F 72 °F 91 °F (1986)
Min Temperature 54 °F 50 °F 37 °F (1970)
Degree Days  
Heating Degree Days 6    
Growing Degree Days 9 (Base 50)    
Moisture  
Dew Point 59 °F    
Average Humidity 99    
Maximum Humidity 100    
Minimum Humidity 91    
Precipitation  
Precipitation 0.06 in - - ()
Sea Level Pressure  
Sea Level Pressure 30.05 in    
Wind  
Wind Speed 13 mph (ENE)    
Max Wind Speed 21 mph    
Max Gust Speed 30 mph    
Visibility 6 miles    
Events Fog , Rain    
Averages and records for this station are not official NWS values.
T = Trace of Precipitation, MM = Missing Value Source: NWS Daily Summary

Daily Weather History Graph

Daily Weather History Graph

Search for Another Location

Airport or City:

Trip Planner

Search our weather history database for the weather conditions in past years. The results will help you decide how hot, cold, wet, or windy it might be!

Date:

Astronomy

May. 07, 2013 Rise Set
Actual Time 5:56 AM EDT 8:00 PM EDT
Civil Twilight 5:27 AM EDT 8:30 PM EDT
Nautical Twilight 4:51 AM EDT 9:06 PM EDT
Astronomical Twilight 4:12 AM EDT 9:45 PM EDT
Moon 4:28 AM EDT (5/7) 5:59 PM EDT (5/7)
Length of Visible Light 15h 03m
Length of Day
14h 04m
Waning Crescent, 5% of the Moon is Illuminated
May 7
Waning Crescent
May 9
New
May 18
First Quarter
May 25
Full
May 31
Last Quarter

Hourly Weather History & Observations

Time (EDT) Temp. Dew Point Humidity Pressure Visibility Wind Dir Wind Speed Gust Speed Precip Events Conditions
12:03 AM 55.4 °F 55.4 °F 100% 30.12 in 1.5 mi East 12.7 mph - N/A   Overcast
12:07 AM 55.4 °F 55.4 °F 100% 30.12 in 2.0 mi East 11.5 mph - N/A   Overcast
12:09 AM 55.4 °F 55.4 °F 100% 30.12 in 2.5 mi East 10.4 mph - N/A   Overcast
12:11 AM 55.4 °F 55.4 °F 100% 30.12 in 3.0 mi East 13.8 mph - N/A   Overcast
12:48 AM 55.4 °F 55.4 °F 100% 30.11 in 4.0 mi ENE 10.4 mph - N/A   Overcast
12:55 AM 54.9 °F 54.9 °F 100% 30.10 in 4.0 mi ENE 12.7 mph - N/A   Overcast
12:56 AM 55.4 °F 55.4 °F 100% 30.10 in 4.0 mi ENE 13.8 mph - N/A   Overcast
1:07 AM 55.4 °F 55.4 °F 100% 30.10 in 2.5 mi ENE 12.7 mph - N/A   Overcast
1:19 AM 55.4 °F 55.4 °F 100% 30.09 in 2.0 mi ENE 10.4 mph - N/A   Overcast
1:34 AM 55.4 °F 55.4 °F 100% 30.10 in 2.5 mi East 10.4 mph - N/A   Overcast
1:36 AM 55.4 °F 55.4 °F 100% 30.09 in 3.0 mi ENE 9.2 mph - N/A   Overcast
1:48 AM 55.4 °F 55.4 °F 100% 30.09 in 2.5 mi ENE 9.2 mph - N/A   Overcast
1:55 AM 55.8 °F 55.8 °F 100% 30.09 in 2.5 mi ENE 9.2 mph - N/A   Overcast
1:58 AM 55.4 °F 55.4 °F 100% 30.08 in 3.0 mi ENE 11.5 mph - N/A   Overcast
2:01 AM 55.4 °F 55.4 °F 100% 30.08 in 3.0 mi ENE 10.4 mph - N/A   Mostly Cloudy
2:52 AM 55.4 °F 55.4 °F 100% 30.07 in 9.0 mi ENE 11.5 mph - N/A   Overcast
2:55 AM 55.9 °F 55.9 °F 100% 30.07 in 9.0 mi ENE 11.5 mph - N/A   Overcast
3:55 AM 55.8 °F 55.8 °F 100% 30.06 in 10.0 mi ENE 9.2 mph - N/A   Overcast
4:55 AM 55.9 °F 55.9 °F 100% 30.05 in 10.0 mi ENE 8.1 mph - N/A   Overcast
5:29 AM 55.4 °F 55.4 °F 100% 30.05 in 7.0 mi ENE 11.5 mph - N/A   Overcast
5:51 AM 55.4 °F 55.4 °F 100% 30.05 in 4.0 mi NE 8.1 mph - N/A   Overcast
5:55 AM 55.9 °F 55.9 °F 100% 30.05 in 4.0 mi NE 8.1 mph - N/A   Overcast
6:42 AM 55.4 °F 55.4 °F 100% 30.06 in 2.5 mi ENE 12.7 mph - N/A   Overcast
6:46 AM 55.4 °F 55.4 °F 100% 30.06 in 1.8 mi NE 10.4 mph - N/A   Overcast
6:55 AM 56.3 °F 56.3 °F 100% 30.06 in 1.5 mi NE 10.4 mph - N/A   Overcast
7:01 AM 57.2 °F 57.2 °F 100% 30.06 in 1.2 mi ENE 11.5 mph - N/A   Overcast
7:03 AM 57.2 °F 57.2 °F 100% 30.06 in 1.0 mi ENE 10.4 mph - N/A   Mist
7:06 AM 57.2 °F 57.2 °F 100% 30.06 in 0.8 mi NE 12.7 mph - N/A   Mist
7:07 AM 57.2 °F 57.2 °F 100% 30.06 in 0.8 mi ENE 11.5 mph - N/A   Mist
7:09 AM 57.2 °F 57.2 °F 100% 30.06 in 0.8 mi ENE 8.1 mph - N/A   Mist
7:10 AM 57.2 °F 57.2 °F 100% 30.06 in 0.5 mi ENE 9.2 mph - N/A Fog Fog
7:11 AM 57.2 °F 57.2 °F 100% 30.06 in 0.5 mi ENE 11.5 mph - N/A Fog Fog
7:36 AM 57.2 °F 57.2 °F 100% 30.06 in 0.5 mi ENE 11.5 mph - N/A Fog Fog
7:41 AM 57.2 °F 57.2 °F 100% 30.06 in 0.5 mi ENE 13.8 mph - N/A Fog Fog
7:50 AM 57.2 °F 57.2 °F 100% 30.07 in 0.5 mi ENE 11.5 mph - N/A Fog Fog
7:53 AM 57.2 °F 57.2 °F 100% 30.07 in 0.8 mi ENE 13.8 mph - N/A   Mist
7:55 AM 56.7 °F 56.7 °F 100% 30.06 in 0.8 mi ENE 16.1 mph - N/A   Mist
8:05 AM 57.2 °F 57.2 °F 100% 30.06 in 0.8 mi ENE 13.8 mph - N/A   Mist
8:06 AM 57.2 °F 57.2 °F 100% 30.06 in 0.8 mi ENE 12.7 mph - N/A   Mist
8:08 AM 57.2 °F 57.2 °F 100% 30.06 in 1.0 mi ENE 12.7 mph - N/A   Mist
8:16 AM 57.2 °F 57.2 °F 100% 30.06 in 1.0 mi ENE 16.1 mph - N/A   Mist
8:20 AM 57.2 °F 57.2 °F 100% 30.06 in 1.0 mi ENE 15.0 mph - N/A   Mist
8:26 AM 57.2 °F 57.2 °F 100% 30.07 in 1.2 mi ENE 15.0 mph - N/A   Overcast
8:31 AM 57.2 °F 57.2 °F 100% 30.07 in 1.5 mi ENE 15.0 mph - N/A   Overcast
8:36 AM 57.2 °F 57.2 °F 100% 30.07 in 2.0 mi ENE 16.1 mph - N/A   Overcast
8:38 AM 57.2 °F 57.2 °F 100% 30.07 in 2.0 mi ENE 15.0 mph - N/A   Overcast
8:40 AM 57.2 °F 57.2 °F 100% 30.07 in 3.0 mi ENE 13.8 mph - N/A   Overcast
8:55 AM 57.6 °F 57.6 °F 100% 30.07 in 4.0 mi ENE 17.3 mph 23.0 mph N/A   Overcast
9:20 AM 59.0 °F 59.0 °F 100% 30.07 in 10.0 mi ENE 17.3 mph 23.0 mph N/A   Overcast
9:32 AM 59.0 °F 59.0 °F 100% 30.07 in 10.0 mi ENE 15.0 mph 20.7 mph N/A Rain Light Rain
9:51 AM 59.0 °F 59.0 °F 100% 30.06 in 10.0 mi ENE 17.3 mph 21.9 mph N/A   Overcast
9:55 AM 59.0 °F 59.0 °F 100% 30.06 in 10.0 mi ENE 16.1 mph 24.2 mph 0.00 in   Overcast
9:56 AM 59.0 °F 59.0 °F 100% 30.06 in 10.0 mi ENE 15.0 mph 24.2 mph N/A   Overcast
10:25 AM 59.0 °F 59.0 °F 100% 30.06 in 10.0 mi ENE 18.4 mph 24.2 mph N/A   Overcast
10:35 AM 60.8 °F 60.8 °F 100% 30.06 in 8.0 mi ENE 18.4 mph 25.3 mph N/A Rain Light Rain
10:46 AM 60.8 °F 60.8 °F 100% 30.06 in 10.0 mi ENE 13.8 mph 24.2 mph N/A   Overcast
10:55 AM 61.5 °F 61.5 °F 100% 30.06 in 10.0 mi ENE 13.8 mph - 0.00 in   Overcast
11:16 AM 62.6 °F 60.8 °F 94% 30.06 in 10.0 mi ENE 15.0 mph - N/A   Overcast
11:31 AM 62.6 °F 60.8 °F 94% 30.06 in 10.0 mi ENE 17.3 mph 21.9 mph N/A   Light Drizzle
11:40 AM 60.8 °F 60.8 °F 100% 30.06 in 10.0 mi ENE 16.1 mph 21.9 mph N/A   Overcast
11:48 AM 60.8 °F 60.8 °F 100% 30.06 in 6.0 mi ENE 15.0 mph 23.0 mph N/A Rain Light Rain
11:55 AM 60.8 °F 60.6 °F 99% 30.06 in 6.0 mi East 19.6 mph - 0.01 in Rain Light Rain
11:57 AM 60.8 °F 60.8 °F 100% 30.06 in 9.0 mi East 18.4 mph - N/A Rain Light Rain
11:58 AM 60.8 °F 60.8 °F 100% 30.06 in 10.0 mi East 18.4 mph - N/A   Overcast
12:07 PM 60.8 °F 60.8 °F 100% 30.06 in 10.0 mi East 17.3 mph - N/A Rain Light Rain
12:12 PM 60.8 °F 60.8 °F 100% 30.06 in 10.0 mi East 16.1 mph 23.0 mph N/A Rain Light Rain
12:15 PM 60.8 °F 60.8 °F 100% 30.06 in 10.0 mi East 17.3 mph 23.0 mph N/A Rain Light Rain
12:16 PM 60.8 °F 60.8 °F 100% 30.05 in 10.0 mi East 18.4 mph 23.0 mph N/A   Overcast
12:18 PM 60.8 °F 60.8 °F 100% 30.05 in 10.0 mi East 17.3 mph - N/A   Overcast
12:21 PM 60.8 °F 60.8 °F 100% 30.05 in 7.0 mi ENE 18.4 mph 23.0 mph N/A Rain Light Rain
12:28 PM 60.8 °F 60.8 °F 100% 30.05 in 6.0 mi ENE 19.6 mph 26.5 mph N/A Rain Light Rain
12:31 PM 62.6 °F 62.6 °F 100% 30.05 in 9.0 mi East 17.3 mph 26.5 mph N/A Rain Light Rain
12:34 PM 62.6 °F 62.6 °F 100% 30.05 in 10.0 mi East 17.3 mph 26.5 mph N/A   Overcast
12:35 PM 62.6 °F 62.6 °F 100% 30.05 in 10.0 mi East 18.4 mph 26.5 mph N/A   Overcast
12:47 PM 62.6 °F 62.6 °F 100% 30.05 in 10.0 mi ENE 18.4 mph 26.5 mph N/A   Mostly Cloudy
12:54 PM 64.4 °F 62.6 °F 94% 30.04 in 10.0 mi ENE 19.6 mph - N/A   Mostly Cloudy
12:55 PM 63.5 °F 63.3 °F 99% 30.04 in 10.0 mi ENE 20.7 mph - 0.01 in   Mostly Cloudy
1:17 PM 64.4 °F 62.6 °F 94% 30.04 in 10.0 mi East 20.7 mph 27.6 mph N/A   Mostly Cloudy
1:55 PM 63.3 °F 61.3 °F 93% 30.04 in 10.0 mi East 17.3 mph 24.2 mph N/A   Scattered Clouds
2:55 PM 63.9 °F 61.3 °F 91% 30.02 in 10.0 mi ENE 18.4 mph 26.5 mph N/A   Scattered Clouds
3:05 PM 62.6 °F 60.8 °F 94% 30.02 in 10.0 mi ENE 19.6 mph 29.9 mph N/A   Mostly Cloudy
3:28 PM 62.6 °F 62.6 °F 100% 30.02 in 10.0 mi ENE 15.0 mph 26.5 mph N/A   Mostly Cloudy
3:55 PM 64.0 °F 62.4 °F 94% 30.01 in 10.0 mi East 18.4 mph 26.5 mph N/A   Scattered Clouds
4:04 PM 62.6 °F 62.6 °F 100% 30.01 in 10.0 mi ENE 17.3 mph 25.3 mph N/A   Mostly Cloudy
4:15 PM 62.6 °F 62.6 °F 100% 30.00 in 10.0 mi ENE 17.3 mph 26.5 mph N/A   Mostly Cloudy
4:29 PM 62.6 °F 60.8 °F 94% 30.01 in 5.0 mi East 19.6 mph 25.3 mph N/A Rain Light Rain
4:31 PM 60.8 °F 60.8 °F 100% 30.01 in 3.0 mi ENE 19.6 mph 25.3 mph N/A Rain Light Rain
4:32 PM 60.8 °F 60.8 °F 100% 30.00 in 3.0 mi ENE 17.3 mph 25.3 mph N/A Rain Light Rain
4:34 PM 60.8 °F 60.8 °F 100% 30.00 in 2.5 mi ENE 18.4 mph 25.3 mph N/A Rain Light Rain
4:39 PM 60.8 °F 60.8 °F 100% 30.00 in 3.0 mi ENE 16.1 mph 25.3 mph N/A Rain Light Rain
4:54 PM 60.8 °F 60.8 °F 100% 29.99 in 10.0 mi ENE 20.7 mph 24.2 mph N/A   Overcast
4:55 PM 61.2 °F 60.8 °F 99% 30.00 in 10.0 mi ENE 17.3 mph 24.2 mph 0.03 in   Overcast
5:01 PM 60.8 °F 60.8 °F 100% 29.99 in 10.0 mi ENE 16.1 mph 24.2 mph N/A   Overcast
5:55 PM 61.7 °F 61.3 °F 99% 29.99 in 10.0 mi ENE 17.3 mph - N/A   Overcast
6:32 PM 60.8 °F 60.8 °F 100% 29.98 in 10.0 mi ENE 16.1 mph 24.2 mph N/A   Scattered Clouds
6:42 PM 60.8 °F 60.8 °F 100% 30.00 in 10.0 mi East 15.0 mph 23.0 mph N/A   Light Drizzle
6:55 PM 61.2 °F 61.0 °F 99% 29.99 in 10.0 mi ENE 13.8 mph - 0.00 in Rain Light Rain
7:01 PM 60.8 °F 60.8 °F 100% 29.99 in 10.0 mi ENE 16.1 mph - N/A   Scattered Clouds
7:55 PM 60.4 °F 60.3 °F 99% 29.99 in 10.0 mi ENE 17.3 mph - 0.00 in   Mostly Cloudy
8:05 PM 60.8 °F 60.8 °F 100% 29.99 in 10.0 mi ENE 15.0 mph 24.2 mph N/A   Overcast
8:46 PM 60.8 °F 59.0 °F 94% 29.99 in 10.0 mi ENE 17.3 mph 25.3 mph N/A   Scattered Clouds
8:55 PM 59.9 °F 59.5 °F 99% 30.00 in 10.0 mi East 12.7 mph 23.0 mph N/A   Scattered Clouds
9:27 PM 60.8 °F 60.8 °F 100% 30.04 in 10.0 mi ESE 13.8 mph - N/A   Mostly Cloudy
9:28 PM 60.8 °F 60.8 °F 100% 30.04 in 10.0 mi East 15.0 mph - N/A   Scattered Clouds
9:29 PM 60.8 °F 60.8 °F 100% 30.04 in 10.0 mi East 13.8 mph - N/A   Mostly Cloudy
9:40 PM 60.8 °F 60.8 °F 100% 30.04 in 10.0 mi East 10.4 mph - N/A   Mostly Cloudy
9:44 PM 60.8 °F 59.0 °F 94% 30.04 in 10.0 mi East 10.4 mph - N/A Rain Light Rain
9:55 PM 59.9 °F 59.5 °F 99% 30.04 in 8.0 mi ESE 12.7 mph - 0.01 in Rain Light Rain
9:59 PM 59.0 °F 59.0 °F 100% 30.04 in 8.0 mi ESE 11.5 mph - N/A Rain Light Rain
10:10 PM 59.0 °F 59.0 °F 100% 30.03 in 10.0 mi East 12.7 mph - N/A   Overcast
10:21 PM 59.0 °F 59.0 °F 100% 30.03 in 10.0 mi East 10.4 mph - N/A Rain Light Rain
10:33 PM 59.0 °F 59.0 °F 100% 30.01 in 10.0 mi East 12.7 mph - N/A Rain Light Rain
10:39 PM 59.0 °F 59.0 °F 100% 30.01 in 10.0 mi East 11.5 mph - N/A   Overcast
10:55 PM 59.0 °F 59.0 °F 100% 30.03 in 10.0 mi ESE 9.2 mph - 0.00 in   Overcast
11:00 PM 59.0 °F 59.0 °F 100% 30.02 in 10.0 mi East 9.2 mph - N/A   Overcast
11:55 PM 57.9 °F 57.9 °F 100% 30.02 in 10.0 mi East 6.9 mph - N/A   Overcast
11:57 PM 57.2 °F 57.2 °F 100% 30.01 in 10.0 mi East 6.9 mph - N/A   Overcast